#timestamp,LO_Frequency,Hit 
1501315235.5,286046995.7,P
1501315255.4,286046996.1,P
1501315275.2,286046995.8,P
1501315295.0,286046993.7,P
1501315295.9,286046993.7,P
1501315315.8,286046999.3,N
1501315335.6,286046998.9,N
1501315355.5,286046999.1,N
1501315375.3,286046999.4,N
1501315395.1,286046999.2,N
1501315415.9,286046999.1,N
1501315435.7,286046998.7,N
1501315455.6,286047000.6,N
1501315475.4,286046999.4,N
1501315495.2,286047001.0,N
1501315515.1,286046998.7,N
1501315516.0,286046998.7,N
1501315535.8,286046999.1,N
1501315555.6,286046999.2,N
1501315575.5,286046998.4,N
1501315595.3,286046996.9,N
1501315615.2,286046999.3,N
1501315635.9,286047002.7,N
1501315655.7,286047002.2,N
1501315675.6,286047000.2,N
1501315695.4,286047002.4,N
1501315715.2,286047001.1,N
1501315735.1,286046998.2,N
1501315736.0,286046998.2,N
1501315755.8,286046998.6,N
1501315775.7,286046998.8,N
1501315795.5,286046998.7,N
1501315815.3,286046999.0,N
1501315835.2,286046998.6,N
1501315855.0,286047003.9,N
1501315855.9,286047003.9,N
1501315875.7,286047002.5,N
1501315895.6,286046999.9,N
1501315915.4,286046999.9,N
1501315935.3,286047000.7,N
1501315955.1,286046998.5,N
1501315975.8,286046998.2,N
1501315995.7,286047001.0,N
1501316045.5,286046998.4,E
1501316055.5,286046998.1,N
1501316075.3,286047000.7,P
1501316095.1,286046998.6,N
1501316115.9,286047000.7,N
1501316135.7,286047000.8,N
1501316155.6,286047000.7,N
1501316175.4,286046998.9,N
1501316195.2,286046998.9,N
1501316215.1,286047001.1,N
1501316216.0,286047001.1,N
1501316235.8,286047001.2,N
1501316255.6,286047000.3,N
1501316275.5,286047000.9,N
1501316295.3,286047001.1,N
1501316315.2,286046998.1,N
1501316335.9,286046998.7,N
1501316355.7,286046998.2,N
1501316375.6,286046996.5,N
1501316395.4,286046996.6,N
1501316415.2,286046996.7,N
1501316435.1,286046998.8,N
1501316436.0,286046998.8,N
1501316455.8,286047002.6,P
1501316475.7,286047000.3,N
1501316495.5,286047000.7,N
1501316515.3,286047000.4,N
1501316535.2,286047000.6,N
1501316555.0,286046998.8,N
1501316555.9,286046998.8,N
1501316575.8,286046997.0,N
1501316595.6,286046997.1,N
1501316615.4,286046995.0,P
1501316635.3,286046999.4,N
1501316655.1,286046998.7,N
1501316675.9,286046998.3,N
1501316695.7,286046996.5,N
1501316715.5,286046996.8,N
1501316735.4,286046996.5,N
1501316755.2,286046999.1,N
1501316775.0,286046998.0,N
1501316775.9,286046998.0,N
1501316795.8,286046994.9,P
1501316815.6,286046998.2,N
1501316835.5,286047000.9,N
1501316855.3,286046998.9,N
1501316875.1,286046999.1,N
1501316895.9,286046999.5,N
1501316915.7,286047001.1,N
1501316935.6,286047000.8,N
1501316955.4,286046998.4,N
1501316975.2,286047000.8,N
1501316995.1,286047001.1,N
1501316996.0,286047001.1,N
1501317015.8,286046998.5,N
1501317035.6,286046999.4,N
1501317055.5,286046998.8,N
1501317075.3,286046999.0,N
1501317095.2,286046996.9,N
1501317115.9,286046999.2,N
1501317135.7,286047002.3,N
1501317155.6,286047001.2,N
1501317175.4,286047000.6,N
1501317195.2,286046998.8,N
1501317215.1,286046998.8,N
1501317216.0,286046998.8,N
1501317235.8,286046998.5,N
1501317255.7,286046998.1,N
1501317275.5,286046996.5,N
1501317295.3,286046999.2,N
1501317315.2,286046999.5,N
1501317335.0,286046999.2,N
1501317335.9,286046999.2,N
1501317355.7,286046998.9,N
1501317375.6,286046996.5,P
1501317395.4,286046998.9,N
1501317415.3,286046998.7,N
1501317435.1,286046998.3,N
1501317455.8,286046998.3,N
1501317475.7,286046999.0,N
1501317495.5,286046998.8,N
1501317515.4,286047002.7,P
1501317535.2,286047002.7,N
1501317555.0,286046999.7,N
1501317555.9,286046999.7,N
1501317575.8,286047002.8,N
1501317595.6,286047001.5,N
1501317615.5,286047000.0,N
1501317635.3,286047002.8,N
1501317655.1,286046999.8,N
1501317675.9,286046999.9,N
1501317695.2,286047000.8,N
1501317715.0,286047001.2,N
1501317715.9,286047001.2,N
1501317735.8,286047001.0,N
1501317755.6,286047000.2,N
1501317775.5,286047000.9,N
1501317795.3,286047002.3,N
1501317815.1,286046999.8,N
1501317835.9,286047000.5,N
1501317855.7,286047000.8,N
1501317875.5,286047002.2,N
1501317895.4,286047000.5,N
1501317915.2,286047002.8,N
1501317935.1,286047002.0,N
1501317936.0,286047002.0,N
1501317955.8,286047001.5,N
1501317975.6,28601501318075.3,286047003.1,P
1501318095.2,286047002.0,P
1501318115.0,286047001.3,N
1501318115.9,286047001.3,N
1501318135.8,286047001.8,N
1501318155.6,286047006.0,P
1501318175.4,286047002.3,N
1501318195.3,286046998.1,N
1501318215.1,286046999.2,N
1501318235.8,286046999.4,N
1501318255.7,286046999.1,N
1501318275.5,286046999.6,N
1501318295.4,286046996.6,N
1501318315.2,286046999.2,N
1501318335.0,286046997.4,N
1501318335.9,286046997.4,N
1501318355.8,286046997.8,N
1501318375.6,286046995.0,N
1501318395.5,286046995.0,N
1501318415.3,286046996.8,N
1501318435.1,286046995.1,N
1501318455.9,286046997.7,N
1501318475.7,286046999.1,N
1501318495.5,286046999.2,P
1501318515.4,286046998.5,P
1501318535.2,286047001.2,P
1501318555.1,286046999.4,N
1501318556.0,286046999.4,N
1501318575.8,286046999.3,N
1501318595.6,286046996.7,P
1501318615.5,286046999.5,N
1501318635.3,286046997.0,N
1501318655.2,286046996.6,N
1501318675.9,286046998.5,N
1501318695.7,286046999.7,N
1501318715.6,286047000.4,N
1501318735.4,286047000.3,N
1501318755.2,286047000.7,N
1501318775.1,286047001.0,N
1501318776.0,286047001.0,N
1501318795.8,286046998.6,N
